CZ-6A DEB

Satellite information

Favourite Embed

Satellite Type and Status

DEBRISIN ORBIT

Key statistics

Satellite CZ-6A DEB at a glance.

Uptime

1077

Days in orbit

Revolutions

≈ 14.2

Per day

Orbit

SSO

Sun Synchronous Orbit

Inclination

98.8

Latest

Satellite identification and parameters

Extended collection of information and parameters for CZ-6A DEB.

Object identification

Identified? True

Debris? True

Object name: CZ-6A DEB

International designator: 2022-151ABM

Object number (NORAD): 56245

Object ID (CCSDS): 56245

Country: PEOPLES REPUBLIC OF CHINA (PRC)

Current information (Y/N): Y

RCS size: SMALL

Orbital parameters

Period: 101.3 minutes

Inclination: 98.813 deg

SMA: 7198.34 km

Apoapsis: 854.56 km

Periapsis: 785.851 km

RAAN: 295.7549 deg

Eccentricy: 0.0047725

Argument of periapsis: 272.9327 deg

Mean anomaly: 86.6389 deg

Mean motion: 14.21523967 rev/day

Mean motion (dot): 0.00010421 rev/day2

B* drag term: 0.0047189 1/REarth

Two-line elements (TLE)

Creation date: Oct. 20, 2025, 6:46 a.m.

Reference frame: TEME

Reference center: EARTH

Epoch: Oct. 19, 2025, 11:13 p.m. UTC

TLE line 0: 0 CZ-6A DEB

TLE line 1: 1 56245U 22151ABM 25292.96768648 .00010421 00000-0 47189-2 0 9996

TLE line 2: 2 56245 98.8130 295.7549 0047725 272.9327 86.6389 14.21523967137710

Live tracking on map

Real-time ground track for satellite CZ-6A DEB.

In-orbit conjunctions

A list of the most updated potential collisions computed for object CZ-6A DEB.

Target Orbit TCA Probability of collision Miss distance Type
SL-16 R/B LEO 2025-07-17 04:02:12 0.0001046718 377.0 (m) ROCKET BODY
METEOR 1-15 LEO 2024-10-23 03:41:51 0.0001491163 284.0 (m) PAYLOAD

Associated space launch

Chinese satellite reported for atmospheric/ocean/environmental/spatial parameter research purposes, details TBD.

CZ-6A DEB was lifted into orbit during the mission ‘Long March 6A | Yunhai 3’, on board a Long March 6A space rocket.

The launch took place on Nov. 11, 2022, 10:52 p.m. from Launch Complex 9A.

For more information about the launch, click the button.

Launch to space Long March 6A | Yunhai 3
Long March 6A | Yunhai 3

Agency: N/A

Status: Launch Successful

Launch date: Nov. 11, 2022, 10:52 p.m. UTC

Rocket: Long March 6A

Launch pad: Launch Complex 9A

Location: Taiyuan Satellite Launch Center, People's Republic of China

...

Latest news about this satellite

There are no fresh news available about this satellite. Check back as we update our databases every day.


Newsletter sign-up

Weekly statistics, charts and insights to help you stay on top of the space industry.